| time (UTC) | temp F | wind direction | speed MPH | gust MPH | rain 1hr in | rain 24hr in | rain mn in | humidity % | barometer mb |
| 20260506173502 | 56 | 267 | 4.0 | 13.0 | 0.00 | 0.00 | 0.00 | 46 | 1016.1 |
| 20260506173002 | 56 | 293 | 5.0 | 12.0 | 0.00 | 0.00 | 0.00 | 40 | 1016.3 |
| 20260506172502 | 55 | 307 | 3.0 | 7.0 | 0.00 | 0.00 | 0.00 | 42 | 1016.1 |
| 20260506172002 | 56 | 289 | 4.0 | 10.0 | 0.00 | 0.00 | 0.00 | 44 | 1016.2 |
| 20260506171501 | 55 | 243 | 4.0 | 9.0 | 0.00 | 0.00 | 0.00 | 45 | 1016.3 |
| 20260506171002 | 54 | 338 | 4.0 | 10.0 | 0.00 | 0.00 | 0.00 | 47 | 1016.3 |
| 20260506170502 | 55 | 277 | 6.0 | 7.0 | 0.00 | 0.00 | 0.00 | 43 | 1016.2 |
| 20260506170002 | 55 | 224 | 7.0 | 11.0 | 0.00 | 0.00 | 0.00 | 44 | 1016.1 |
| 20260506165502 | 55 | 266 | 7.0 | 12.0 | 0.00 | 0.00 | 0.00 | 42 | 1016.1 |
| 20260506165002 | 55 | 321 | 6.0 | 11.0 | 0.00 | 0.00 | 0.00 | 44 | 1016.1 |
| 20260506164503 | 55 | 241 | 4.0 | 6.0 | 0.00 | 0.00 | 0.00 | 41 | 1015.8 |
| 20260506164001 | 55 | 310 | 3.0 | 6.0 | 0.00 | 0.00 | 0.00 | 45 | 1016.0 |
| 20260506163502 | 55 | 285 | 4.0 | 9.0 | 0.00 | 0.00 | 0.00 | 44 | 1015.9 |
| 20260506163002 | 54 | 335 | 3.0 | 5.0 | 0.00 | 0.00 | 0.00 | 43 | 1015.9 |
| 20260506162502 | 54 | 248 | 5.0 | 10.0 | 0.00 | 0.00 | 0.00 | 45 | 1016.1 |
| 20260506162002 | 54 | 272 | 2.0 | 7.0 | 0.00 | 0.00 | 0.00 | 46 | 1016.0 |
| 20260506161502 | 55 | 264 | 6.0 | 7.0 | 0.00 | 0.00 | 0.00 | 45 | 1016.0 |
| 20260506161002 | 54 | 282 | 4.0 | 6.0 | 0.00 | 0.00 | 0.00 | 47 | 1016.0 |
| 20260506160502 | 54 | 252 | 4.0 | 9.0 | 0.00 | 0.00 | 0.00 | 46 | 1015.7 |
| 20260506160002 | 53 | 300 | 3.0 | 5.0 | 0.00 | 0.00 | 0.00 | 46 | 1015.7 |
| 20260506155502 | 54 | 249 | 4.0 | 9.0 | 0.00 | 0.00 | 0.00 | 46 | 1015.9 |
| 20260506155002 | 54 | 295 | 2.0 | 5.0 | 0.00 | 0.00 | 0.00 | 46 | 1016.1 |
| 20260506154502 | 54 | 272 | 2.0 | 3.0 | 0.00 | 0.00 | 0.00 | 45 | 1015.7 |
| 20260506154001 | 54 | 1 | 3.0 | 6.0 | 0.00 | 0.00 | 0.00 | 45 | 1015.8 |
| 20260506153502 | 53 | 287 | 0.0 | 6.0 | 0.00 | 0.00 | 0.00 | 51 | 1016.0 |
| 20260506153002 | 54 | 303 | 6.0 | 9.0 | 0.00 | 0.00 | 0.00 | 46 | 1015.9 |
| 20260506152502 | 54 | 294 | 2.0 | 5.0 | 0.00 | 0.00 | 0.00 | 44 | 1016.0 |
| 20260506152002 | 54 | 283 | 2.0 | 6.0 | 0.00 | 0.00 | 0.00 | 47 | 1016.0 |
| 20260506151502 | 53 | 313 | 1.0 | 4.0 | 0.00 | 0.00 | 0.00 | 44 | 1016.1 |
| 20260506151002 | 53 | 287 | 2.0 | 4.0 | 0.00 | 0.00 | 0.00 | 49 | 1016.1 |
| 20260506150502 | 53 | 273 | 3.0 | 5.0 | 0.00 | 0.00 | 0.00 | 52 | 1016.1 |
| 20260506150002 | 52 | 275 | 2.0 | 4.0 | 0.00 | 0.00 | 0.00 | 54 | 1016.2 |
| 20260506145502 | 52 | 280 | 2.0 | 5.0 | 0.00 | 0.00 | 0.00 | 47 | 1016.0 |
| 20260506145002 | 52 | 280 | 1.0 | 5.0 | 0.00 | 0.00 | 0.00 | 45 | 1015.9 |
| 20260506144501 | 52 | 294 | 2.0 | 4.0 | 0.00 | 0.00 | 0.00 | 53 | 1016.0 |
| 20260506144002 | 52 | 278 | 2.0 | 3.0 | 0.00 | 0.00 | 0.00 | 53 | 1016.2 |
| 20260506143502 | 52 | 282 | 3.0 | 5.0 | 0.00 | 0.00 | 0.00 | 52 | 1016.0 |
| 20260506143002 | 53 | 281 | 1.0 | 3.0 | 0.00 | 0.00 | 0.00 | 48 | 1015.9 |
| 20260506142502 | 51 | 291 | 1.0 | 2.0 | 0.00 | 0.00 | 0.00 | 52 | 1016.3 |
| 20260506142002 | 51 | 286 | 0.0 | 2.0 | 0.00 | 0.00 | 0.00 | 56 | 1016.1 |
| 20260506141502 | 51 | 288 | 2.0 | 3.0 | 0.00 | 0.00 | 0.00 | 53 | 1016.2 |
| 20260506141002 | 51 | 289 | 0.0 | 3.0 | 0.00 | 0.00 | 0.00 | 55 | 1015.9 |
| 20260506140502 | 52 | 222 | 2.0 | 3.0 | 0.00 | 0.00 | 0.00 | 55 | 1016.1 |
| 20260506140002 | 50 | 312 | 2.0 | 2.0 | 0.00 | 0.00 | 0.00 | 54 | 1016.1 |
| 20260506135502 | 50 | 288 | 0.0 | 0.0 | 0.00 | 0.00 | 0.00 | 56 | 1016.1 |
| 20260506135002 | 50 | 265 | 2.0 | 3.0 | 0.00 | 0.00 | 0.00 | 57 | 1015.8 |
| 20260506134501 | 50 | 301 | 0.0 | 0.0 | 0.00 | 0.00 | 0.00 | 56 | 1015.8 |
| 20260506134002 | 49 | 301 | 1.0 | 2.0 | 0.00 | 0.00 | 0.00 | 59 | 1015.6 |
| 20260506133502 | 49 | 303 | 0.0 | 2.0 | 0.00 | 0.00 | 0.00 | 61 | 1015.7 |
| 20260506133001 | 49 | 301 | 0.0 | 2.0 | 0.00 | 0.00 | 0.00 | 61 | 1015.6 |
| 20260506132502 | 48 | 298 | 0.0 | 2.0 | 0.00 | 0.00 | 0.00 | 64 | 1015.6 |
| 20260506132002 | 48 | 299 | 1.0 | 2.0 | 0.00 | 0.00 | 0.00 | 66 | 1015.3 |
| 20260506131502 | 48 | 300 | 1.0 | 2.0 | 0.00 | 0.00 | 0.00 | 66 | 1015.1 |
| 20260506131002 | 48 | 303 | 0.0 | 3.0 | 0.00 | 0.00 | 0.00 | 64 | 1015.2 |
| 20260506130502 | 48 | 304 | 1.0 | 2.0 | 0.00 | 0.00 | 0.00 | 66 | 1015.4 |
| 20260506130004 | 48 | 296 | 0.0 | 2.0 | 0.00 | 0.00 | 0.00 | 67 | 1015.2 |
| 20260506125502 | 47 | 308 | 1.0 | 3.0 | 0.00 | 0.00 | 0.00 | 67 | 1015.1 |
| 20260506125002 | 47 | 305 | 0.0 | 3.0 | 0.00 | 0.00 | 0.00 | 69 | 1015.1 |
| 20260506124502 | 47 | 299 | 1.0 | 2.0 | 0.00 | 0.00 | 0.00 | 73 | 1015.0 |
| 20260506124002 | 46 | 302 | 1.0 | 2.0 | 0.00 | 0.00 | 0.00 | 74 | 1015.0 |
| 20260506123502 | 46 | 305 | 1.0 | 2.0 | 0.00 | 0.00 | 0.00 | 74 | 1015.0 |
| 20260506123002 | 45 | 299 | 0.0 | 0.0 | 0.00 | 0.00 | 0.00 | 74 | 1014.9 |
| 20260506122502 | 45 | 317 | 1.0 | 2.0 | 0.00 | 0.00 | 0.00 | 76 | 1014.7 |
| 20260506122002 | 44 | 299 | 0.0 | 0.0 | 0.00 | 0.00 | 0.00 | 79 | 1014.5 |
| 20260506121502 | 44 | 298 | 0.0 | 0.0 | 0.00 | 0.00 | 0.00 | 80 | 1014.6 |
| 20260506121002 | 43 | 298 | 0.0 | 0.0 | 0.00 | 0.00 | 0.00 | 81 | 1014.5 |
| 20260506120502 | 42 | 298 | 0.0 | 0.0 | 0.00 | 0.00 | 0.00 | 81 | 1014.6 |
| 20260506120001 | 42 | 298 | 0.0 | 0.0 | 0.00 | 0.00 | 0.00 | 81 | 1014.4 |
| 20260506115502 | 42 | 299 | 1.0 | 2.0 | 0.00 | 0.00 | 0.00 | 80 | 1014.5 |
| 20260506115002 | 42 | 298 | 0.0 | 0.0 | 0.00 | 0.00 | 0.00 | 80 | 1014.3 |
| 20260506114502 | 42 | 297 | 0.0 | 2.0 | 0.00 | 0.00 | 0.00 | 81 | 1014.7 |
| 20260506114002 | 41 | 297 | 0.0 | 2.0 | 0.00 | 0.00 | 0.00 | 82 | 1014.6 |
| 20260506113502 | 40 | 297 | 0.0 | 2.0 | 0.00 | 0.00 | 0.00 | 83 | 1014.1 |
| 20260506113002 | 40 | 296 | 0.0 | 0.0 | 0.00 | 0.00 | 0.00 | 84 | 1014.3 |
| 20260506112502 | 40 | 296 | 0.0 | 0.0 | 0.00 | 0.00 | 0.00 | 83 | 1014.3 |
| 20260506112002 | 40 | 296 | 0.0 | 0.0 | 0.00 | 0.00 | 0.00 | 83 | 1014.0 |
| 20260506111502 | 40 | 296 | 0.0 | 0.0 | 0.00 | 0.00 | 0.00 | 83 | 1013.9 |
| 20260506111002 | 39 | 296 | 0.0 | 0.0 | 0.00 | 0.00 | 0.00 | 83 | 1013.8 |
| 20260506110502 | 39 | 296 | 0.0 | 0.0 | 0.00 | 0.00 | 0.00 | 85 | 1013.9 |
| 20260506110001 | 38 | 296 | 0.0 | 0.0 | 0.00 | 0.00 | 0.00 | 85 | 1013.8 |
| 20260506105502 | 38 | 297 | 0.0 | 0.0 | 0.00 | 0.00 | 0.00 | 85 | 1013.8 |
| 20260506105002 | 38 | 296 | 0.0 | 2.0 | 0.00 | 0.00 | 0.00 | 86 | 1013.6 |
| 20260506104502 | 38 | 296 | 0.0 | 0.0 | 0.00 | 0.00 | 0.00 | 86 | 1013.7 |
| 20260506104001 | 37 | 296 | 0.0 | 0.0 | 0.00 | 0.00 | 0.00 | 85 | 1013.7 |
| 20260506103502 | 38 | 296 | 0.0 | 0.0 | 0.00 | 0.00 | 0.00 | 84 | 1013.6 |
| 20260506103002 | 38 | 296 | 0.0 | 0.0 | 0.00 | 0.00 | 0.00 | 82 | 1013.4 |
| 20260506102501 | 38 | 296 | 0.0 | 0.0 | 0.00 | 0.00 | 0.00 | 81 | 1013.4 |
| 20260506102002 | 39 | 296 | 0.0 | 0.0 | 0.00 | 0.00 | 0.00 | 81 | 1013.3 |
| 20260506101502 | 39 | 296 | 1.0 | 2.0 | 0.00 | 0.00 | 0.00 | 80 | 1013.3 |
| 20260506101002 | 39 | 296 | 0.0 | 0.0 | 0.00 | 0.00 | 0.00 | 79 | 1013.1 |
| 20260506100503 | 40 | 296 | 0.0 | 0.0 | 0.00 | 0.00 | 0.00 | 77 | 1013.0 |
| 20260506100002 | 41 | 296 | 0.0 | 0.0 | 0.00 | 0.00 | 0.00 | 75 | 1013.2 |
| 20260506095502 | 41 | 296 | 0.0 | 0.0 | 0.00 | 0.00 | 0.00 | 75 | 1013.0 |
| 20260506095002 | 41 | 296 | 0.0 | 0.0 | 0.00 | 0.00 | 0.00 | 75 | 1013.3 |
| 20260506094501 | 42 | 296 | 0.0 | 0.0 | 0.00 | 0.00 | 0.00 | 74 | 1013.0 |
| 20260506094002 | 42 | 296 | 0.0 | 0.0 | 0.00 | 0.00 | 0.00 | 74 | 1013.3 |
| 20260506093503 | 42 | 297 | 0.0 | 2.0 | 0.00 | 0.00 | 0.00 | 73 | 1013.3 |
| 20260506093001 | 42 | 296 | 0.0 | 2.0 | 0.00 | 0.00 | 0.00 | 72 | 1013.4 |
| 20260506092502 | 42 | 297 | 0.0 | 0.0 | 0.00 | 0.00 | 0.00 | 72 | 1013.2 |
| 20260506092002 | 42 | 297 | 0.0 | 0.0 | 0.00 | 0.00 | 0.00 | 72 | 1013.5 |
| 20260506091502 | 42 | 297 | 1.0 | 2.0 | 0.00 | 0.00 | 0.00 | 72 | 1013.3 |
| 20260506091002 | 42 | 298 | 0.0 | 2.0 | 0.00 | 0.00 | 0.00 | 73 | 1013.5 |
| 20260506090501 | 42 | 294 | 0.0 | 2.0 | 0.00 | 0.00 | 0.00 | 72 | 1013.2 |
| 20260506090002 | 42 | 293 | 1.0 | 2.0 | 0.00 | 0.00 | 0.00 | 71 | 1013.2 |
| 20260506085502 | 42 | 299 | 0.0 | 2.0 | 0.00 | 0.00 | 0.00 | 71 | 1013.1 |
| 20260506085002 | 42 | 296 | 0.0 | 0.0 | 0.00 | 0.00 | 0.00 | 71 | 1013.1 |
| 20260506084502 | 43 | 296 | 0.0 | 2.0 | 0.00 | 0.00 | 0.00 | 70 | 1013.1 |
| 20260506084002 | 43 | 298 | 1.0 | 2.0 | 0.00 | 0.00 | 0.00 | 70 | 1013.0 |
| 20260506083502 | 43 | 301 | 0.0 | 0.0 | 0.00 | 0.00 | 0.00 | 69 | 1013.1 |
| 20260506083002 | 43 | 299 | 1.0 | 2.0 | 0.00 | 0.00 | 0.00 | 69 | 1012.9 |
| 20260506082502 | 43 | 298 | 0.0 | 0.0 | 0.00 | 0.00 | 0.00 | 68 | 1013.0 |
| 20260506082001 | 43 | 296 | 0.0 | 0.0 | 0.00 | 0.00 | 0.00 | 68 | 1013.0 |
| 20260506081502 | 43 | 297 | 0.0 | 2.0 | 0.00 | 0.00 | 0.00 | 68 | 1012.9 |
| 20260506081002 | 42 | 301 | 0.0 | 2.0 | 0.00 | 0.00 | 0.00 | 70 | 1013.0 |
| 20260506080502 | 42 | 297 | 0.0 | 2.0 | 0.00 | 0.00 | 0.00 | 70 | 1012.9 |
| 20260506073502 | 45 | 302 | 1.0 | 3.0 | 0.00 | 0.00 | 0.00 | 65 | 1012.6 |
| 20260506073002 | 45 | 322 | 1.0 | 4.0 | 0.00 | 0.00 | 0.00 | 64 | 1012.5 |
| 20260506072502 | 45 | 302 | 1.0 | 3.0 | 0.00 | 0.00 | 0.00 | 65 | 1012.3 |
| 20260506072002 | 45 | 312 | 2.0 | 2.0 | 0.00 | 0.00 | 0.00 | 66 | 1012.2 |
| 20260506071502 | 45 | 359 | 2.0 | 3.0 | 0.00 | 0.00 | 0.00 | 66 | 1012.0 |
| 20260506071001 | 45 | 324 | 2.0 | 3.0 | 0.00 | 0.00 | 0.00 | 65 | 1012.0 |
| 20260506070502 | 45 | 300 | 0.0 | 2.0 | 0.00 | 0.00 | 0.00 | 66 | 1012.1 |
| 20260506062002 | 47 | 298 | 0.0 | 2.0 | 0.00 | 0.00 | 0.00 | 63 | 1012.0 |
| 20260506061502 | 47 | 300 | 0.0 | 3.0 | 0.00 | 0.00 | 0.00 | 63 | 1012.2 |
| 20260506061001 | 47 | 306 | 2.0 | 2.0 | 0.00 | 0.00 | 0.00 | 62 | 1011.9 |
| 20260506060502 | 47 | 296 | 1.0 | 2.0 | 0.00 | 0.00 | 0.00 | 63 | 1012.2 |
| 20260506051002 | 49 | 303 | 1.0 | 3.0 | 0.00 | 0.00 | 0.00 | 63 | 1011.8 |
| 20260506050502 | 48 | 304 | 1.0 | 3.0 | 0.00 | 0.00 | 0.00 | 66 | 1011.8 |
| 20260506045002 | 49 | 297 | 0.0 | 2.0 | 0.00 | 0.00 | 0.07 | 65 | 1011.5 |
| 20260506044502 | 49 | 291 | 0.0 | 0.0 | 0.00 | 0.00 | 0.07 | 65 | 1011.6 |
| 20260506044002 | 49 | 291 | 0.0 | 0.0 | 0.00 | 0.00 | 0.07 | 65 | 1011.8 |
| 20260506043502 | 49 | 291 | 0.0 | 0.0 | 0.00 | 0.00 | 0.07 | 66 | 1011.5 |
| 20260506043002 | 49 | 291 | 0.0 | 0.0 | 0.00 | 0.00 | 0.07 | 65 | 1012.0 |
| 20260506042502 | 49 | 291 | 1.0 | 2.0 | 0.00 | 0.00 | 0.07 | 65 | 1012.0 |
| 20260506042001 | 49 | 292 | 0.0 | 0.0 | 0.00 | 0.00 | 0.07 | 64 | 1011.8 |
| 20260506041502 | 50 | 291 | 0.0 | 0.0 | 0.00 | 0.00 | 0.07 | 63 | 1011.7 |
| 20260506041002 | 50 | 292 | 0.0 | 0.0 | 0.00 | 0.00 | 0.07 | 62 | 1011.9 |
| 20260506040501 | 50 | 292 | 1.0 | 2.0 | 0.00 | 0.00 | 0.07 | 63 | 1012.1 |
| 20260506040002 | 50 | 296 | 0.0 | 2.0 | 0.00 | 0.00 | 0.07 | 63 | 1012.4 |
| 20260506035502 | 50 | 298 | 1.0 | 2.0 | 0.00 | 0.00 | 0.07 | 61 | 1012.2 |
| 20260506035002 | 50 | 304 | 0.0 | 0.0 | 0.00 | 0.00 | 0.07 | 62 | 1012.3 |
| 20260506034502 | 50 | 304 | 1.0 | 2.0 | 0.00 | 0.00 | 0.07 | 62 | 1012.0 |
| 20260506034002 | 50 | 305 | 1.0 | 2.0 | 0.00 | 0.00 | 0.07 | 62 | 1012.1 |
| 20260506033502 | 50 | 305 | 0.0 | 0.0 | 0.00 | 0.00 | 0.07 | 62 | 1011.8 |
| 20260506033001 | 50 | 305 | 0.0 | 0.0 | 0.00 | 0.00 | 0.07 | 62 | 1012.0 |
| 20260506032502 | 50 | 305 | 0.0 | 0.0 | 0.00 | 0.00 | 0.07 | 61 | 1011.9 |
| 20260506032002 | 50 | 305 | 0.0 | 0.0 | 0.00 | 0.00 | 0.07 | 63 | 1012.0 |
| 20260506031502 | 50 | 304 | 0.0 | 2.0 | 0.00 | 0.00 | 0.07 | 61 | 1011.8 |
| 20260506031002 | 50 | 305 | 0.0 | 0.0 | 0.00 | 0.00 | 0.07 | 61 | 1012.0 |
| 20260506030503 | 50 | 305 | 0.0 | 0.0 | 0.00 | 0.00 | 0.07 | 64 | 1011.9 |
| 20260506025502 | 50 | 305 | 0.0 | 0.0 | 0.00 | 0.00 | 0.07 | 60 | 1011.6 |
| 20260506025002 | 50 | 305 | 0.0 | 0.0 | 0.00 | 0.00 | 0.07 | 61 | 1011.7 |
| 20260506024502 | 50 | 305 | 0.0 | 0.0 | 0.00 | 0.00 | 0.07 | 60 | 1011.5 |
| 20260506024001 | 50 | 305 | 0.0 | 0.0 | 0.00 | 0.00 | 0.07 | 58 | 1011.5 |
| 20260506023502 | 50 | 305 | 0.0 | 0.0 | 0.00 | 0.00 | 0.07 | 58 | 1011.4 |
| 20260506023002 | 50 | 305 | 0.0 | 0.0 | 0.00 | 0.00 | 0.07 | 57 | 1011.8 |
| 20260506022502 | 50 | 305 | 0.0 | 0.0 | 0.00 | 0.00 | 0.07 | 57 | 1011.4 |
| 20260506022002 | 51 | 305 | 0.0 | 0.0 | 0.00 | 0.00 | 0.07 | 57 | 1011.5 |
| 20260506021502 | 51 | 305 | 2.0 | 2.0 | 0.00 | 0.00 | 0.07 | 54 | 1011.5 |
| 20260506021004 | 51 | 303 | 0.0 | 0.0 | 0.00 | 0.00 | 0.07 | 55 | 1011.2 |
| 20260506020502 | 51 | 304 | 0.0 | 0.0 | 0.00 | 0.00 | 0.07 | 54 | 1011.5 |
| 20260506020002 | 51 | 304 | 0.0 | 0.0 | 0.00 | 0.00 | 0.07 | 55 | 1011.0 |
| 20260506015502 | 51 | 303 | 0.0 | 0.0 | 0.00 | 0.00 | 0.07 | 53 | 1011.1 |
| 20260506015001 | 51 | 301 | 1.0 | 2.0 | 0.00 | 0.00 | 0.07 | 53 | 1011.1 |
| 20260506014502 | 51 | 303 | 0.0 | 2.0 | 0.00 | 0.00 | 0.07 | 54 | 1011.0 |
| 20260506014002 | 51 | 298 | 1.0 | 2.0 | 0.00 | 0.00 | 0.07 | 53 | 1010.9 |
| 20260506013502 | 52 | 299 | 0.0 | 3.0 | 0.00 | 0.00 | 0.07 | 52 | 1010.7 |
| 20260506013002 | 51 | 302 | 0.0 | 2.0 | 0.00 | 0.00 | 0.07 | 52 | 1010.8 |
| 20260506012502 | 52 | 299 | 0.0 | 2.0 | 0.00 | 0.00 | 0.07 | 52 | 1010.5 |
| 20260506012002 | 52 | 297 | 1.0 | 2.0 | 0.00 | 0.00 | 0.07 | 51 | 1010.6 |
| 20260506011501 | 52 | 298 | 2.0 | 3.0 | 0.00 | 0.00 | 0.07 | 50 | 1010.7 |
| 20260506011002 | 52 | 301 | 2.0 | 2.0 | 0.00 | 0.00 | 0.07 | 52 | 1010.6 |
| 20260506010502 | 52 | 297 | 1.0 | 2.0 | 0.00 | 0.00 | 0.07 | 53 | 1010.5 |
| 20260506010002 | 52 | 295 | 0.0 | 2.0 | 0.00 | 0.00 | 0.07 | 52 | 1010.8 |
| 20260506005502 | 52 | 297 | 1.0 | 2.0 | 0.00 | 0.00 | 0.07 | 51 | 1010.4 |
| 20260506005002 | 52 | 303 | 2.0 | 2.0 | 0.00 | 0.00 | 0.07 | 49 | 1010.4 |
| 20260506004502 | 52 | 299 | 1.0 | 3.0 | 0.00 | 0.00 | 0.07 | 50 | 1010.5 |
| 20260506004002 | 52 | 301 | 2.0 | 2.0 | 0.00 | 0.00 | 0.07 | 49 | 1010.5 |
| 20260506003502 | 53 | 299 | 1.0 | 3.0 | 0.00 | 0.00 | 0.07 | 51 | 1010.4 |
| 20260506003002 | 53 | 281 | 2.0 | 3.0 | 0.00 | 0.00 | 0.07 | 50 | 1010.5 |
| 20260506002502 | 53 | 293 | 1.0 | 2.0 | 0.00 | 0.00 | 0.07 | 50 | 1010.0 |
| 20260506002002 | 53 | 296 | 0.0 | 0.0 | 0.00 | 0.00 | 0.07 | 49 | 1010.1 |
| 20260506001502 | 53 | 316 | 2.0 | 3.0 | 0.00 | 0.00 | 0.07 | 48 | 1010.3 |
| 20260506001001 | 53 | 284 | 2.0 | 3.0 | 0.00 | 0.00 | 0.07 | 47 | 1010.1 |
| 20260506000503 | 53 | 303 | 1.0 | 3.0 | 0.00 | 0.00 | 0.07 | 48 | 1010.2 |
| 20260506000002 | 54 | 337 | 5.0 | 6.0 | 0.00 | 0.00 | 0.07 | 44 | 1010.1 |
| 20260505235502 | 54 | 322 | 4.0 | 5.0 | 0.00 | 0.07 | 0.07 | 45 | 1009.9 |
| 20260505235002 | 54 | 323 | 5.0 | 6.0 | 0.00 | 0.07 | 0.07 | 44 | 1009.9 |
| 20260505234502 | 54 | 302 | 3.0 | 5.0 | 0.00 | 0.07 | 0.07 | 44 | 1010.5 |
| 20260505234002 | 54 | 293 | 3.0 | 5.0 | 0.00 | 0.00 | 0.07 | 44 | 1010.2 |
| 20260505233502 | 54 | 328 | 2.0 | 4.0 | 0.00 | 0.00 | 0.07 | 44 | 1010.4 |
| 20260505233002 | 54 | 297 | 2.0 | 5.0 | 0.00 | 0.00 | 0.07 | 43 | 1010.3 |
| 20260505232502 | 54 | 262 | 4.0 | 7.0 | 0.00 | 0.00 | 0.07 | 42 | 1010.2 |
| 20260505232002 | 54 | 305 | 3.0 | 6.0 | 0.00 | 0.00 | 0.07 | 42 | 1009.9 |
| 20260505231502 | 54 | 296 | 3.0 | 5.0 | 0.00 | 0.00 | 0.07 | 42 | 1010.1 |
| 20260505231002 | 54 | 295 | 2.0 | 5.0 | 0.00 | 0.00 | 0.07 | 42 | 1010.2 |
| 20260505230502 | 54 | 275 | 4.0 | 6.0 | 0.00 | 0.00 | 0.07 | 42 | 1010.3 |
| 20260505230002 | 54 | 307 | 2.0 | 4.0 | 0.00 | 0.00 | 0.07 | 43 | 1010.4 |
| 20260505225502 | 54 | 286 | 3.0 | 5.0 | 0.00 | 0.00 | 0.07 | 42 | 1010.5 |
| 20260505225002 | 54 | 299 | 2.0 | 5.0 | 0.00 | 0.00 | 0.07 | 43 | 1010.4 |
| 20260505224502 | 54 | 291 | 4.0 | 6.0 | 0.00 | 0.00 | 0.07 | 40 | 1010.6 |
| 20260505224002 | 54 | 275 | 4.0 | 6.0 | 0.00 | 0.00 | 0.07 | 42 | 1010.7 |
| 20260505223502 | 54 | 339 | 2.0 | 5.0 | 0.00 | 0.00 | 0.07 | 41 | 1010.7 |
| 20260505223002 | 54 | 299 | 2.0 | 5.0 | 0.00 | 0.00 | 0.07 | 41 | 1010.7 |
| 20260505222502 | 54 | 283 | 3.0 | 5.0 | 0.00 | 0.00 | 0.07 | 44 | 1010.7 |
| 20260505222001 | 54 | 311 | 2.0 | 5.0 | 0.00 | 0.00 | 0.07 | 43 | 1010.5 |
| 20260505221502 | 54 | 308 | 3.0 | 9.0 | 0.00 | 0.00 | 0.07 | 42 | 1010.5 |
| 20260505221002 | 54 | 267 | 3.0 | 6.0 | 0.00 | 0.00 | 0.07 | 43 | 1010.4 |
| 20260505220502 | 54 | 258 | 4.0 | 5.0 | 0.00 | 0.00 | 0.07 | 42 | 1010.5 |
| 20260505220002 | 54 | 281 | 3.0 | 5.0 | 0.00 | 0.00 | 0.07 | 43 | 1010.7 |
| 20260505215502 | 54 | 313 | 2.0 | 6.0 | 0.00 | 0.00 | 0.07 | 43 | 1010.7 |
| 20260505215002 | 54 | 276 | 2.0 | 4.0 | 0.00 | 0.00 | 0.07 | 45 | 1010.7 |
| 20260505214502 | 54 | 255 | 3.0 | 4.0 | 0.00 | 0.00 | 0.07 | 43 | 1010.8 |
| 20260505214002 | 55 | 290 | 2.0 | 4.0 | 0.00 | 0.00 | 0.07 | 44 | 1010.7 |
| 20260505213502 | 55 | 262 | 1.0 | 5.0 | 0.00 | 0.00 | 0.07 | 44 | 1011.0 |
| 20260505213002 | 54 | 301 | 2.0 | 4.0 | 0.00 | 0.00 | 0.07 | 45 | 1010.8 |
| 20260505212501 | 54 | 305 | 3.0 | 7.0 | 0.00 | 0.00 | 0.07 | 41 | 1010.9 |
| 20260505212002 | 54 | 326 | 4.0 | 7.0 | 0.00 | 0.00 | 0.07 | 43 | 1010.7 |
| 20260505211502 | 54 | 323 | 2.0 | 5.0 | 0.00 | 0.00 | 0.07 | 43 | 1010.7 |
| 20260505211002 | 54 | 312 | 2.0 | 7.0 | 0.00 | 0.00 | 0.07 | 45 | 1010.8 |
| 20260505210502 | 54 | 297 | 3.0 | 5.0 | 0.00 | 0.00 | 0.07 | 42 | 1010.8 |
| 20260505210002 | 54 | 296 | 3.0 | 6.0 | 0.00 | 0.00 | 0.07 | 42 | 1011.1 |
| 20260505205502 | 54 | 322 | 5.0 | 9.0 | 0.00 | 0.00 | 0.07 | 44 | 1011.0 |
| 20260505205002 | 54 | 304 | 4.0 | 9.0 | 0.00 | 0.00 | 0.07 | 48 | 1011.0 |
| 20260505204501 | 54 | 284 | 3.0 | 6.0 | 0.00 | 0.00 | 0.07 | 49 | 1010.8 |
| 20260505204003 | 54 | 297 | 3.0 | 5.0 | 0.00 | 0.00 | 0.07 | 48 | 1011.0 |
| 20260505203503 | 54 | 10 | 2.0 | 10.0 | 0.00 | 0.00 | 0.07 | 50 | 1011.0 |
| 20260505203002 | 54 | 272 | 4.0 | 7.0 | 0.00 | 0.00 | 0.07 | 47 | 1011.2 |
| 20260505202502 | 54 | 343 | 3.0 | 5.0 | 0.00 | 0.00 | 0.07 | 47 | 1011.1 |
| 20260505202001 | 54 | 296 | 1.0 | 4.0 | 0.00 | 0.00 | 0.07 | 48 | 1011.1 |
| 20260505201502 | 54 | 292 | 3.0 | 5.0 | 0.00 | 0.00 | 0.07 | 49 | 1011.3 |
| 20260505201002 | 54 | 296 | 3.0 | 7.0 | 0.00 | 0.00 | 0.07 | 46 | 1011.2 |
| 20260505200502 | 54 | 296 | 2.0 | 6.0 | 0.00 | 0.00 | 0.07 | 47 | 1011.0 |
| 20260505200001 | 54 | 319 | 5.0 | 6.0 | 0.00 | 0.00 | 0.07 | 47 | 1011.1 |
| 20260505195502 | 54 | 260 | 2.0 | 7.0 | 0.00 | 0.00 | 0.07 | 48 | 1011.1 |
| 20260505195002 | 54 | 281 | 3.0 | 7.0 | 0.00 | 0.00 | 0.07 | 46 | 1010.9 |
| 20260505194502 | 54 | 295 | 4.0 | 9.0 | 0.00 | 0.00 | 0.07 | 46 | 1010.7 |
| 20260505194002 | 55 | 294 | 3.0 | 11.0 | 0.00 | 0.00 | 0.07 | 45 | 1011.0 |
| 20260505193502 | 55 | 313 | 4.0 | 7.0 | 0.00 | 0.00 | 0.07 | 47 | 1011.0 |
| 20260505193002 | 55 | 295 | 1.0 | 3.0 | 0.00 | 0.00 | 0.07 | 47 | 1011.1 |
| 20260505192502 | 55 | 342 | 3.0 | 6.0 | 0.00 | 0.00 | 0.07 | 45 | 1011.2 |
| 20260505192002 | 55 | 274 | 5.0 | 9.0 | 0.00 | 0.00 | 0.07 | 46 | 1011.0 |
| 20260505191502 | 55 | 270 | 2.0 | 5.0 | 0.00 | 0.00 | 0.07 | 49 | 1011.0 |
| 20260505191001 | 55 | 266 | 4.0 | 7.0 | 0.00 | 0.00 | 0.07 | 48 | 1011.1 |
| 20260505190502 | 55 | 258 | 4.0 | 7.0 | 0.00 | 0.00 | 0.07 | 48 | 1011.1 |
| 20260505190003 | 55 | 291 | 3.0 | 6.0 | 0.00 | 0.00 | 0.07 | 56 | 1011.2 |
| 20260505185502 | 55 | 243 | 3.0 | 9.0 | 0.00 | 0.00 | 0.07 | 54 | 1011.2 |
| 20260505185001 | 55 | 303 | 1.0 | 6.0 | 0.00 | 0.00 | 0.07 | 53 | 1011.2 |
| 20260505184502 | 55 | 264 | 5.0 | 9.0 | 0.00 | 0.00 | 0.07 | 52 | 1011.4 |
| 20260505184002 | 55 | 311 | 4.0 | 9.0 | 0.00 | 0.00 | 0.07 | 55 | 1011.3 |
| 20260505183502 | 54 | 354 | 5.0 | 7.0 | 0.00 | 0.00 | 0.07 | 51 | 1011.4 |
| 20260505183002 | 55 | 253 | 4.0 | 9.0 | 0.00 | 0.00 | 0.07 | 53 | 1011.1 |
| 20260505182502 | 55 | 299 | 2.0 | 10.0 | 0.00 | 0.00 | 0.07 | 55 | 1011.4 |
| 20260505182002 | 54 | 295 | 4.0 | 6.0 | 0.00 | 0.00 | 0.07 | 56 | 1011.2 |
| 20260505181501 | 54 | 286 | 4.0 | 9.0 | 0.00 | 0.00 | 0.07 | 59 | 1011.5 |
| 20260505181002 | 54 | 258 | 3.0 | 5.0 | 0.00 | 0.00 | 0.07 | 60 | 1011.1 |
| 20260505180502 | 54 | 331 | 2.0 | 7.0 | 0.00 | 0.00 | 0.07 | 58 | 1011.2 |
| 20260505180002 | 55 | 309 | 0.0 | 5.0 | 0.00 | 0.00 | 0.07 | 59 | 1011.2 |
| 20260505175502 | 54 | 319 | 5.0 | 7.0 | 0.00 | 0.00 | 0.07 | 57 | 1011.4 |
| 20260505175001 | 54 | 299 | 5.0 | 7.0 | 0.00 | 0.00 | 0.07 | 58 | 1011.1 |
| 20260505174502 | 54 | 337 | 5.0 | 6.0 | 0.00 | 0.00 | 0.07 | 58 | 1011.2 |
| 20260505174002 | 54 | 261 | 6.0 | 9.0 | 0.00 | 0.00 | 0.07 | 56 | 1011.1 |